"Period start","avg(HW err(1)/warn(2) (#))","avg(Visibility (m))","avg(Weather code (#))","avg(Precip intensity (mm/h))","min(HW err(1)/warn(2) (#))","max(HW err(1)/warn(2) (#))","std(HW err(1)/warn(2) (#))","med(HW err(1)/warn(2) (#))","min(Visibility (m))","max(Visibility (m))","std(Visibility (m))","med(Visibility (m))","min(Weather code (#))","max(Weather code (#))","std(Weather code (#))","med(Weather code (#))","min(Precip intensity (mm/h))","max(Precip intensity (mm/h))","std(Precip intensity (mm/h))","med(Precip intensity (mm/h))"
2014-09-04 00:00:00,2,35545,0,0.00,2,2,0,2,22371,49606,8045,33212,0,0,0,0,0.00,0.00,0.00,0.00
2014-09-04 00:10:00,2,41720,0,0.00,0,2,1,2,27218,50000,7638,42098,0,0,0,0,0.00,0.00,0.00,0.00
2014-09-04 00:20:00,2,41534,0,0.00,2,2,0,2,34062,50000,5146,41262,0,0,0,0,0.00,0.00,0.00,0.00
2014-09-04 00:30:00,2,45451,0,0.00,2,2,0,2,36099,50000,5108,47368,0,0,0,0,0.00,0.00,0.00,0.00
2014-09-04 00:40:00,2,40605,0,0.00,2,2,0,2,27651,50000,7246,42878,0,0,0,0,0.00,0.00,0.00,0.00
2014-09-04 00:50:00,2,41052,0,0.00,0,2,1,2,26737,50000,6908,41601,0,0,0,0,0.00,0.00,0.00,0.00
2014-09-04 01:00:00,2,37537,0,0.00,0,2,1,2,13748,49061,11533,39350,0,0,0,0,0.00,0.00,0.00,0.00
2014-09-04 01:10:00,2,41927,0,0.00,2,2,0,2,30395,50000,6648,42112,0,0,0,0,0.00,0.00,0.00,0.00
2014-09-04 01:20:00,2,43674,0,0.00,0,2,1,2,33769,50000,5048,43292,0,0,0,0,0.00,0.00,0.00,0.00
2014-09-04 01:30:00,2,46326,0,0.00,2,2,0,2,31274,50000,5627,48954,0,0,0,0,0.00,0.00,0.00,0.00
2014-09-04 01:40:00,2,40401,0,0.00,2,2,0,2,27114,50000,6390,42131,0,0,0,0,0.00,0.00,0.00,0.00
2014-09-04 01:50:00,2,43003,0,0.00,2,2,0,2,35481,49207,4168,43414,0,0,0,0,0.00,0.00,0.00,0.00
2014-09-04 02:00:00,2,41190,0,0.00,2,2,0,2,33128,50000,4574,40752,0,0,0,0,0.00,0.00,0.00,0.00
2014-09-04 02:10:00,2,40562,0,0.00,2,2,0,2,29911,50000,6754,40223,0,0,0,0,0.00,0.00,0.00,0.00
2014-09-04 02:20:00,2,40125,0,0.00,2,2,0,2,30751,50000,6303,40094,0,0,0,0,0.00,0.00,0.00,0.00
2014-09-04 02:30:00,2,46827,0,0.00,2,2,0,2,39560,50000,3449,47786,0,0,0,0,0.00,0.00,0.00,0.00
2014-09-04 02:40:00,2,47204,0,0.00,2,2,0,2,42529,50000,3132,49038,0,0,0,0,0.00,0.00,0.00,0.00
2014-09-04 02:50:00,2,44381,0,0.00,2,2,0,2,34258,50000,4862,44242,0,0,0,0,0.00,0.00,0.00,0.00
2014-09-04 03:00:00,2,33793,0,0.00,2,2,0,2,21705,50000,10142,30572,0,0,0,0,0.00,0.00,0.00,0.00
2014-09-04 03:10:00,2,44720,0,0.00,2,2,0,2,32107,50000,6693,47642,0,0,0,0,0.00,0.00,0.00,0.00
2014-09-04 03:20:00,2,47523,0,0.00,2,2,0,2,39481,50000,3449,49965,0,0,0,0,0.00,0.00,0.00,0.00
2014-09-04 03:30:00,2,44671,0,0.00,2,2,0,2,33019,50000,6195,47732,0,0,0,0,0.00,0.00,0.00,0.00
2014-09-04 03:40:00,2,45976,0,0.00,2,2,0,2,32104,50000,5731,48874,0,0,0,0,0.00,0.00,0.00,0.00
2014-09-04 03:50:00,2,43863,0,0.00,2,2,0,2,33014,50000,5862,46658,0,0,0,0,0.00,0.00,0.00,0.00
2014-09-04 04:00:00,2,44268,0,0.00,2,2,0,2,26663,50000,6380,45151,0,0,0,0,0.00,0.00,0.00,0.00
2014-09-04 04:10:00,2,48031,0,0.00,2,2,0,2,41375,50000,2933,50000,0,0,0,0,0.00,0.00,0.00,0.00
2014-09-04 04:20:00,2,44906,0,0.00,2,2,0,2,35034,50000,5124,45434,0,0,0,0,0.00,0.00,0.00,0.00
2014-09-04 04:30:00,2,49055,0,0.00,2,2,0,2,46617,50000,1124,49566,0,0,0,0,0.00,0.00,0.00,0.00
2014-09-04 04:40:00,2,48191,0,0.00,2,2,0,2,41867,50000,2531,49790,0,0,0,0,0.00,0.00,0.00,0.00
2014-09-04 04:50:00,2,48376,0,0.00,0,2,1,2,45346,50000,1409,48648,0,0,0,0,0.00,0.00,0.00,0.00
2014-09-04 05:00:00,0,46544,0,0.00,0,2,1,0,35027,50000,4786,49802,0,0,0,0,0.00,0.00,0.00,0.00
2014-09-04 05:10:00,0,45347,0,0.00,0,0,0,0,36459,50000,5673,48389,0,0,0,0,0.00,0.00,0.00,0.00
2014-09-04 05:20:00,0,45856,0,0.00,0,0,0,0,32789,50000,6286,50000,0,0,0,0,0.00,0.00,0.00,0.00
2014-09-04 05:30:00,1,49670,0,0.00,0,2,1,1,46705,50000,988,50000,0,0,0,0,0.00,0.00,0.00,0.00
2014-09-04 05:40:00,0,45568,0,0.00,0,2,1,0,38388,50000,4524,46732,0,0,0,0,0.00,0.00,0.00,0.00
2014-09-04 05:50:00,0,47662,0,0.00,0,0,0,0,40296,50000,3213,49770,0,0,0,0,0.00,0.00,0.00,0.00
2014-09-04 06:00:00,1,48037,0,0.00,0,2,1,0,43061,50000,2542,49888,0,0,0,0,0.00,0.00,0.00,0.00
2014-09-04 06:10:00,0,49271,0,0.00,0,2,1,0,46151,50000,1258,50000,0,0,0,0,0.00,0.00,0.00,0.00
2014-09-04 06:20:00,1,49492,0,0.00,0,2,1,0,48080,50000,687,50000,0,0,0,0,0.00,0.00,0.00,0.00
2014-09-04 06:30:00,1,42066,0,0.00,0,2,1,1,35509,50000,5265,41974,0,0,0,0,0.00,0.00,0.00,0.00
2014-09-04 06:40:00,2,48152,0,0.00,2,2,0,2,42893,50000,2552,49422,0,0,0,0,0.00,0.00,0.00,0.00
2014-09-04 06:50:00,2,46987,0,0.00,0,2,1,2,38795,50000,3446,47977,0,0,0,0,0.00,0.00,0.00,0.00
2014-09-04 07:00:00,1,44803,0,0.00,0,2,1,2,40543,49977,2728,45047,0,0,0,0,0.00,0.00,0.00,0.00
2014-09-04 07:10:00,1,50000,0,0.00,0,2,1,0,50000,50000,0,50000,0,0,0,0,0.00,0.00,0.00,0.00
2014-09-04 07:20:00,0,48954,0,0.00,0,0,0,0,46404,50000,1178,49169,0,0,0,0,0.00,0.00,0.00,0.00
2014-09-04 07:30:00,1,49838,0,0.00,0,2,1,0,49129,50000,325,50000,0,0,0,0,0.00,0.00,0.00,0.00
2014-09-04 07:40:00,0,49521,0,0.00,0,0,0,0,46310,50000,1119,50000,0,0,0,0,0.00,0.00,0.00,0.00
2014-09-04 07:50:00,1,50000,0,0.00,0,2,1,2,50000,50000,0,50000,0,0,0,0,0.00,0.00,0.00,0.00
2014-09-04 08:00:00,2,50000,0,0.00,2,2,0,2,50000,50000,0,50000,0,0,0,0,0.00,0.00,0.00,0.00
2014-09-04 08:10:00,2,49722,0,0.00,2,2,0,2,48695,50000,462,50000,0,0,0,0,0.00,0.00,0.00,0.00
2014-09-04 08:20:00,2,49473,0,0.00,2,2,0,2,45704,50000,1289,50000,0,0,0,0,0.00,0.00,0.00,0.00
2014-09-04 08:30:00,2,49924,0,0.00,2,2,0,2,49241,50000,228,50000,0,0,0,0,0.00,0.00,0.00,0.00
2014-09-04 08:40:00,2,49889,0,0.00,0,2,1,2,49123,50000,265,50000,0,0,0,0,0.00,0.00,0.00,0.00
2014-09-04 08:50:00,2,49283,0,0.00,0,2,1,2,44688,50000,1619,50000,0,0,0,0,0.00,0.00,0.00,0.00
2014-09-04 09:00:00,2,49450,0,0.00,2,2,0,2,46184,50000,1120,50000,0,0,0,0,0.00,0.00,0.00,0.00
2014-09-04 09:10:00,2,46873,0,0.00,0,2,1,2,40969,50000,3767,49624,0,0,0,0,0.00,0.00,0.00,0.00
2014-09-04 09:20:00,1,49220,0,0.00,0,2,1,2,45984,50000,1280,49954,0,0,0,0,0.00,0.00,0.00,0.00
2014-09-04 09:30:00,1,48017,0,0.00,0,2,1,2,42812,50000,2658,49972,0,0,0,0,0.00,0.00,0.00,0.00
2014-09-04 09:40:00,2,50000,0,0.00,0,2,1,2,50000,50000,0,50000,0,0,0,0,0.00,0.00,0.00,0.00
2014-09-04 09:50:00,2,49837,0,0.00,0,2,1,2,48374,50000,488,50000,0,0,0,0,0.00,0.00,0.00,0.00
2014-09-04 10:00:00,2,49952,0,0.00,2,2,0,2,49521,50000,144,50000,0,0,0,0,0.00,0.00,0.00,0.00
2014-09-04 10:10:00,2,50000,0,0.00,2,2,0,2,50000,50000,0,50000,0,0,0,0,0.00,0.00,0.00,0.00
2014-09-04 10:20:00,2,50000,0,0.00,0,2,1,2,50000,50000,0,50000,0,0,0,0,0.00,0.00,0.00,0.00
2014-09-04 10:30:00,2,50000,0,0.00,2,2,0,2,50000,50000,0,50000,0,0,0,0,0.00,0.00,0.00,0.00
2014-09-04 10:40:00,2,50000,0,0.00,2,2,0,2,50000,50000,0,50000,0,0,0,0,0.00,0.00,0.00,0.00
2014-09-04 10:50:00,2,50000,0,0.00,2,2,0,2,50000,50000,0,50000,0,0,0,0,0.00,0.00,0.00,0.00
2014-09-04 11:00:00,2,50000,0,0.00,2,2,0,2,50000,50000,0,50000,0,0,0,0,0.00,0.00,0.00,0.00
2014-09-04 11:10:00,2,50000,0,0.00,2,2,0,2,50000,50000,0,50000,0,0,0,0,0.00,0.00,0.00,0.00
2014-09-04 11:20:00,2,50000,0,0.00,2,2,0,2,50000,50000,0,50000,0,0,0,0,0.00,0.00,0.00,0.00
2014-09-04 11:30:00,2,50000,0,0.00,2,2,0,2,50000,50000,0,50000,0,0,0,0,0.00,0.00,0.00,0.00
2014-09-04 11:40:00,2,50000,0,0.00,2,2,0,2,50000,50000,0,50000,0,0,0,0,0.00,0.00,0.00,0.00
2014-09-04 11:50:00,2,50000,0,0.00,2,2,0,2,50000,50000,0,50000,0,0,0,0,0.00,0.00,0.00,0.00
2014-09-04 12:00:00,2,50000,0,0.00,2,2,0,2,50000,50000,0,50000,0,0,0,0,0.00,0.00,0.00,0.00
2014-09-04 12:10:00,2,50000,0,0.00,2,2,0,2,50000,50000,0,50000,0,0,0,0,0.00,0.00,0.00,0.00
2014-09-04 12:20:00,2,50000,0,0.00,2,2,0,2,50000,50000,0,50000,0,0,0,0,0.00,0.00,0.00,0.00
2014-09-04 12:30:00,2,50000,0,0.00,2,2,0,2,50000,50000,0,50000,0,0,0,0,0.00,0.00,0.00,0.00
2014-09-04 12:40:00,2,50000,0,0.00,2,2,0,2,50000,50000,0,50000,0,0,0,0,0.00,0.00,0.00,0.00
2014-09-04 12:50:00,2,50000,0,0.00,2,2,0,2,50000,50000,0,50000,0,0,0,0,0.00,0.00,0.00,0.00
2014-09-04 13:00:00,2,50000,0,0.00,2,2,0,2,50000,50000,0,50000,0,0,0,0,0.00,0.00,0.00,0.00
2014-09-04 13:10:00,2,50000,0,0.00,2,2,0,2,50000,50000,0,50000,0,0,0,0,0.00,0.00,0.00,0.00
2014-09-04 13:20:00,2,50000,0,0.00,2,2,0,2,50000,50000,0,50000,0,0,0,0,0.00,0.00,0.00,0.00
2014-09-04 13:30:00,2,50000,0,0.00,2,2,0,2,50000,50000,0,50000,0,0,0,0,0.00,0.00,0.00,0.00
2014-09-04 13:40:00,2,50000,0,0.00,2,2,0,2,50000,50000,0,50000,0,0,0,0,0.00,0.00,0.00,0.00
2014-09-04 13:50:00,2,50000,0,0.00,2,2,0,2,50000,50000,0,50000,0,0,0,0,0.00,0.00,0.00,0.00
2014-09-04 14:00:00,2,50000,0,0.00,2,2,0,2,50000,50000,0,50000,0,0,0,0,0.00,0.00,0.00,0.00
2014-09-04 14:10:00,2,50000,0,0.00,2,2,0,2,50000,50000,0,50000,0,0,0,0,0.00,0.00,0.00,0.00
2014-09-04 14:20:00,2,50000,0,0.00,2,2,0,2,50000,50000,0,50000,0,0,0,0,0.00,0.00,0.00,0.00
2014-09-04 14:30:00,2,50000,0,0.00,2,2,0,2,50000,50000,0,50000,0,0,0,0,0.00,0.00,0.00,0.00
2014-09-04 14:40:00,2,50000,0,0.00,2,2,0,2,50000,50000,0,50000,0,0,0,0,0.00,0.00,0.00,0.00
2014-09-04 14:50:00,2,50000,0,0.00,2,2,0,2,50000,50000,0,50000,0,0,0,0,0.00,0.00,0.00,0.00
2014-09-04 15:00:00,2,50000,0,0.00,2,2,0,2,50000,50000,0,50000,0,0,0,0,0.00,0.00,0.00,0.00
2014-09-04 15:10:00,2,50000,0,0.00,2,2,0,2,50000,50000,0,50000,0,0,0,0,0.00,0.00,0.00,0.00
2014-09-04 15:20:00,2,50000,0,0.00,2,2,0,2,50000,50000,0,50000,0,0,0,0,0.00,0.00,0.00,0.00
2014-09-04 15:30:00,2,50000,0,0.00,2,2,0,2,50000,50000,0,50000,0,0,0,0,0.00,0.00,0.00,0.00
2014-09-04 15:40:00,2,50000,0,0.00,2,2,0,2,50000,50000,0,50000,0,0,0,0,0.00,0.00,0.00,0.00
2014-09-04 15:50:00,2,50000,0,0.00,2,2,0,2,50000,50000,0,50000,0,0,0,0,0.00,0.00,0.00,0.00
2014-09-04 16:00:00,2,50000,0,0.00,2,2,0,2,50000,50000,0,50000,0,0,0,0,0.00,0.00,0.00,0.00
2014-09-04 16:10:00,2,50000,0,0.00,2,2,0,2,50000,50000,0,50000,0,0,0,0,0.00,0.00,0.00,0.00
2014-09-04 16:20:00,2,50000,0,0.00,2,2,0,2,50000,50000,0,50000,0,0,0,0,0.00,0.00,0.00,0.00
2014-09-04 16:30:00,2,50000,0,0.00,2,2,0,2,50000,50000,0,50000,0,0,0,0,0.00,0.00,0.00,0.00
2014-09-04 16:40:00,2,50000,0,0.00,2,2,0,2,50000,50000,0,50000,0,0,0,0,0.00,0.00,0.00,0.00
2014-09-04 16:50:00,2,50000,0,0.00,2,2,0,2,50000,50000,0,50000,0,0,0,0,0.00,0.00,0.00,0.00
2014-09-04 17:00:00,2,50000,0,0.00,2,2,0,2,50000,50000,0,50000,0,0,0,0,0.00,0.00,0.00,0.00
2014-09-04 17:10:00,2,50000,0,0.00,2,2,0,2,50000,50000,0,50000,0,0,0,0,0.00,0.00,0.00,0.00
2014-09-04 17:20:00,2,50000,0,0.00,2,2,0,2,50000,50000,0,50000,0,0,0,0,0.00,0.00,0.00,0.00
2014-09-04 17:30:00,2,50000,0,0.00,2,2,0,2,50000,50000,0,50000,0,0,0,0,0.00,0.00,0.00,0.00
2014-09-04 17:40:00,2,50000,0,0.00,2,2,0,2,50000,50000,0,50000,0,0,0,0,0.00,0.00,0.00,0.00
2014-09-04 17:50:00,2,50000,0,0.00,2,2,0,2,50000,50000,0,50000,0,0,0,0,0.00,0.00,0.00,0.00
2014-09-04 18:00:00,2,50000,0,0.00,2,2,0,2,50000,50000,0,50000,0,0,0,0,0.00,0.00,0.00,0.00
2014-09-04 18:10:00,2,50000,0,0.00,2,2,0,2,50000,50000,0,50000,0,0,0,0,0.00,0.00,0.00,0.00
2014-09-04 18:20:00,2,50000,0,0.00,2,2,0,2,50000,50000,0,50000,0,0,0,0,0.00,0.00,0.00,0.00
2014-09-04 18:30:00,2,50000,0,0.00,2,2,0,2,50000,50000,0,50000,0,0,0,0,0.00,0.00,0.00,0.00
2014-09-04 18:40:00,2,50000,0,0.00,2,2,0,2,50000,50000,0,50000,0,0,0,0,0.00,0.00,0.00,0.00
2014-09-04 18:50:00,2,50000,0,0.00,2,2,0,2,50000,50000,0,50000,0,0,0,0,0.00,0.00,0.00,0.00
2014-09-04 19:00:00,2,49808,0,0.00,2,2,0,2,48085,50000,574,50000,0,0,0,0,0.00,0.00,0.00,0.00
2014-09-04 19:10:00,2,49916,0,0.00,2,2,0,2,49164,50000,251,50000,0,0,0,0,0.00,0.00,0.00,0.00
2014-09-04 19:20:00,2,50000,0,0.00,2,2,0,2,50000,50000,0,50000,0,0,0,0,0.00,0.00,0.00,0.00
2014-09-04 19:30:00,2,49990,0,0.00,2,2,0,2,49898,50000,31,50000,0,0,0,0,0.00,0.00,0.00,0.00
2014-09-04 19:40:00,2,50000,0,0.00,2,2,0,2,50000,50000,0,50000,0,0,0,0,0.00,0.00,0.00,0.00
2014-09-04 19:50:00,2,49950,0,0.00,2,2,0,2,49496,50000,151,50000,0,0,0,0,0.00,0.00,0.00,0.00
2014-09-04 20:00:00,2,50000,0,0.00,2,2,0,2,50000,50000,0,50000,0,0,0,0,0.00,0.00,0.00,0.00
2014-09-04 20:10:00,2,49944,0,0.00,2,2,0,2,49442,50000,167,50000,0,0,0,0,0.00,0.00,0.00,0.00
2014-09-04 20:20:00,2,50000,0,0.00,2,2,0,2,50000,50000,0,50000,0,0,0,0,0.00,0.00,0.00,0.00
2014-09-04 20:30:00,2,50000,0,0.00,2,2,0,2,50000,50000,0,50000,0,0,0,0,0.00,0.00,0.00,0.00
2014-09-04 20:40:00,2,50000,0,0.00,2,2,0,2,50000,50000,0,50000,0,0,0,0,0.00,0.00,0.00,0.00
2014-09-04 20:50:00,2,49113,0,0.00,2,2,0,2,45888,50000,1267,49672,0,0,0,0,0.00,0.00,0.00,0.00
2014-09-04 21:00:00,2,50000,0,0.00,2,2,0,2,50000,50000,0,50000,0,0,0,0,0.00,0.00,0.00,0.00
2014-09-04 21:10:00,2,49873,0,0.00,2,2,0,2,49069,50000,286,50000,0,0,0,0,0.00,0.00,0.00,0.00
2014-09-04 21:20:00,2,50000,0,0.00,2,2,0,2,50000,50000,0,50000,0,0,0,0,0.00,0.00,0.00,0.00
2014-09-04 21:30:00,2,49669,0,0.00,2,2,0,2,47623,50000,737,50000,0,0,0,0,0.00,0.00,0.00,0.00
2014-09-04 21:40:00,2,49733,0,0.00,2,2,0,2,47453,50000,761,50000,0,0,0,0,0.00,0.00,0.00,0.00
2014-09-04 21:50:00,2,47820,0,0.00,2,2,0,2,44356,50000,2197,48922,0,0,0,0,0.00,0.00,0.00,0.00
2014-09-04 22:00:00,2,49449,0,0.00,2,2,0,2,47588,50000,907,50000,0,0,0,0,0.00,0.00,0.00,0.00
2014-09-04 22:10:00,2,50000,0,0.00,2,2,0,2,50000,50000,0,50000,0,0,0,0,0.00,0.00,0.00,0.00
2014-09-04 22:20:00,2,50000,0,0.00,2,2,0,2,50000,50000,0,50000,0,0,0,0,0.00,0.00,0.00,0.00
2014-09-04 22:30:00,2,50000,0,0.00,2,2,0,2,50000,50000,0,50000,0,0,0,0,0.00,0.00,0.00,0.00
2014-09-04 22:40:00,2,49986,0,0.00,0,2,1,2,49860,50000,42,50000,0,0,0,0,0.00,0.00,0.00,0.00
2014-09-04 22:50:00,2,49383,0,0.00,0,2,1,2,45538,50000,1369,50000,0,0,0,0,0.00,0.00,0.00,0.00
2014-09-04 23:00:00,2,50000,0,0.00,0,2,1,2,50000,50000,0,50000,0,0,0,0,0.00,0.00,0.00,0.00
2014-09-04 23:10:00,2,49496,0,0.00,2,2,0,2,48181,50000,606,49808,0,0,0,0,0.00,0.00,0.00,0.00
2014-09-04 23:20:00,2,47836,0,0.00,2,2,0,2,37787,50000,3747,50000,0,0,0,0,0.00,0.00,0.00,0.00
2014-09-04 23:30:00,2,48820,0,0.00,2,2,0,2,43719,50000,2022,50000,0,0,0,0,0.00,0.00,0.00,0.00
2014-09-04 23:40:00,2,49186,0,0.00,2,2,0,2,43606,50000,1931,50000,0,0,0,0,0.00,0.00,0.00,0.00
2014-09-04 23:50:00,2,47172,0,0.00,2,2,0,2,38902,50000,3971,49800,0,0,0,0,0.00,0.00,0.00,0.00
